N6CTG Weather Reports


Display with metric or nautical units.
time (UTC)temp
F
wind
direction
speed
MPH
gust
MPH
rain 1hr
in
rain 24hr
in
rain mn
in
humidity
%
barometer
mb
20260508065403 57 262 0.0 1.0 0.00 0.00 0.00 90 1013.9
20260508064503 57 0 0.0 0.0 0.00 0.00 0.00 90 1014.0
20260508063624 57 0 0.0 0.0 0.00 0.00 0.00 90 1014.0
20260508062703 57 0 0.0 0.0 0.00 0.00 0.00 90 1014.0
20260508061803 57 0 0.0 0.0 0.00 0.00 0.00 90 1013.9
20260508060903 57 0 0.0 0.0 0.00 0.00 0.00 89 1014.0
20260508060003 58 0 0.0 0.0 0.00 0.00 0.00 89 1013.9
20260508055403 58 0 0.0 0.0 0.00 0.00 0.00 89 1013.9
20260508054503 58 239 0.0 2.0 0.00 0.00 0.00 88 1013.9
20260508053624 58 213 0.0 3.0 0.00 0.00 0.00 88 1013.9
20260508052703 58 246 0.0 1.0 0.00 0.00 0.00 87 1013.9
20260508051803 59 0 0.0 0.0 0.00 0.00 0.00 87 1013.8
20260508050925 59 0 0.0 0.0 0.00 0.00 0.00 86 1013.8
20260508050003 59 0 0.0 0.0 0.00 0.00 0.00 86 1013.7
20260508045403 60 0 0.0 0.0 0.00 0.00 0.00 85 1013.8
20260508044503 60 0 0.0 0.0 0.00 0.00 0.00 85 1013.7
20260508043624 60 0 0.0 0.0 0.00 0.00 0.00 84 1013.6
20260508042703 61 0 0.0 0.0 0.00 0.00 0.00 83 1013.5
20260508041804 61 139 0.0 2.0 0.00 0.00 0.00 83 1013.3
20260508040924 62 156 0.0 2.0 0.00 0.00 0.00 82 1013.2
20260508040024 62 166 0.0 3.0 0.00 0.00 0.00 81 1013.1
20260508035403 63 162 0.0 2.0 0.00 0.00 0.00 81 1012.9
20260508034503 63 0 0.0 0.0 0.00 0.00 0.00 80 1012.8
20260508033604 64 0 0.0 0.0 0.00 0.00 0.00 79 1012.8
20260508032724 64 0 0.0 0.0 0.00 0.00 0.00 78 1012.7
20260508031804 64 240 0.0 3.0 0.00 0.00 0.00 77 1012.6
20260508030924 65 238 2.0 3.0 0.00 0.00 0.00 76 1012.4
20260508030005 66 242 1.0 3.0 0.00 0.00 0.00 75 1012.2
20260508025403 66 239 1.0 2.0 0.00 0.00 0.00 74 1012.2
20260508024503 67 236 0.0 3.0 0.00 0.00 0.00 73 1012.1
20260508023603 68 241 1.0 3.0 0.00 0.00 0.00 71 1012.1
20260508022703 69 239 1.0 3.0 0.00 0.00 0.00 70 1011.9
20260508021803 70 242 1.0 3.0 0.00 0.00 0.00 68 1011.8
20260508020903 71 241 1.0 4.0 0.00 0.00 0.00 66 1011.7
20260508020003 72 239 1.0 4.0 0.00 0.00 0.00 65 1011.7
20260508015403 72 239 2.0 4.0 0.00 0.00 0.00 65 1011.7
20260508014524 72 243 1.0 4.0 0.00 0.00 0.00 64 1011.7
20260508013603 72 235 3.0 4.0 0.00 0.00 0.00 65 1011.7
20260508012705 73 237 2.0 6.0 0.00 0.00 0.00 63 1011.8
20260508011804 73 248 1.0 4.0 0.00 0.00 0.00 63 1011.7
20260508010903 73 255 2.0 5.0 0.00 0.00 0.00 63 1011.7
20260508010003 73 248 3.0 6.0 0.00 0.00 0.00 64 1011.8
20260508005403 73 261 3.0 6.0 0.00 0.00 0.00 63 1011.7
20260508004503 74 247 3.0 7.0 0.00 0.00 0.00 62 1011.7
20260508003603 74 248 3.0 7.0 0.00 0.00 0.00 62 1011.5
20260508002703 75 252 3.0 7.0 0.00 0.00 0.00 60 1011.5
20260508001803 75 251 3.0 8.0 0.00 0.00 0.00 61 1011.6
20260508000924 75 246 3.0 7.0 0.00 0.00 0.00 60 1011.5
20260508000024 76 251 3.0 10.0 0.00 0.00 0.00 59 1011.4
20260507235403 76 248 4.0 10.0 0.00 0.00 0.00 59 1011.4
20260507234503 76 246 3.0 7.0 0.00 0.00 0.00 59 1011.4
20260507233624 76 251 3.0 7.0 0.00 0.00 0.00 59 1011.5
20260507232704 76 262 3.0 7.0 0.00 0.00 0.00 59 1011.4
20260507231803 76 253 3.0 8.0 0.00 0.00 0.00 58 1011.3
20260507230903 77 241 4.0 8.0 0.00 0.00 0.00 57 1011.4
20260507230005 77 243 5.0 9.0 0.00 0.00 0.00 59 1011.4
20260507225403 77 250 4.0 9.0 0.00 0.00 0.00 57 1011.4
20260507224504 77 249 4.0 9.0 0.00 0.00 0.00 56 1011.4
20260507223624 78 243 5.0 11.0 0.00 0.00 0.00 56 1011.4
20260507222724 78 238 5.0 10.0 0.00 0.00 0.00 56 1011.4
20260507221803 78 245 4.0 9.0 0.00 0.00 0.00 56 1011.4
20260507220903 78 251 4.0 9.0 0.00 0.00 0.00 55 1011.5
20260507220004 78 248 5.0 11.0 0.00 0.00 0.00 55 1011.6
20260507215403 79 251 5.0 11.0 0.00 0.00 0.00 54 1011.7
20260507214503 80 246 5.0 9.0 0.00 0.00 0.00 53 1011.8
20260507213603 80 245 5.0 10.0 0.00 0.00 0.00 53 1011.9
20260507212703 80 237 5.0 11.0 0.00 0.00 0.00 53 1011.9
20260507211804 80 239 5.0 10.0 0.00 0.00 0.00 52 1012.0
20260507210903 80 240 5.0 10.0 0.00 0.00 0.00 51 1012.1
20260507210003 81 248 3.0 7.0 0.00 0.00 0.00 49 1012.1
20260507205404 80 252 4.0 9.0 0.00 0.00 0.00 50 1012.2
20260507204505 81 255 4.0 9.0 0.00 0.00 0.00 48 1012.3
20260507203603 81 255 2.0 6.0 0.00 0.00 0.00 49 1012.3
20260507202703 80 255 3.0 8.0 0.00 0.00 0.00 47 1012.3
20260507201803 79 246 3.0 7.0 0.00 0.00 0.00 48 1012.4
20260507200903 79 246 4.0 9.0 0.00 0.00 0.00 48 1012.5
20260507200025 78 242 3.0 9.0 0.00 0.00 0.00 48 1012.5
20260507195403 78 241 4.0 7.0 0.00 0.00 0.00 48 1012.6
20260507194503 78 236 4.0 10.0 0.00 0.00 0.00 50 1012.6
20260507193603 78 239 4.0 10.0 0.00 0.00 0.00 51 1012.7
20260507192703 77 252 3.0 6.0 0.00 0.00 0.00 52 1012.8
20260507191803 77 258 2.0 8.0 0.00 0.00 0.00 52 1012.9
20260507190903 76 250 4.0 9.0 0.00 0.00 0.00 54 1013.0
20260507190004 75 241 4.0 8.0 0.00 0.00 0.00 54 1013.2
20260507185403 75 246 4.0 7.0 0.00 0.00 0.00 56 1013.2
20260507184503 75 236 3.0 7.0 0.00 0.00 0.00 56 1013.3
20260507183624 75 246 3.0 7.0 0.00 0.00 0.00 55 1013.4
20260507182704 75 238 3.0 9.0 0.00 0.00 0.00 56 1013.4
20260507181804 74 222 2.0 6.0 0.00 0.00 0.00 55 1013.4
20260507180903 74 230 4.0 6.0 0.00 0.00 0.00 55 1013.4
20260507180003 74 240 1.0 5.0 0.00 0.00 0.00 55 1013.5
20260507175405 73 231 2.0 5.0 0.00 0.00 0.00 57 1013.6
20260507174503 73 248 1.0 4.0 0.00 0.00 0.00 57 1013.7
20260507173625 72 241 1.0 5.0 0.00 0.00 0.00 60 1013.8
20260507172704 71 237 2.0 6.0 0.00 0.00 0.00 61 1013.8
20260507171824 70 244 0.0 4.0 0.00 0.00 0.00 63 1013.9
20260507170924 69 237 1.0 6.0 0.00 0.00 0.00 64 1014.0
20260507170025 69 249 0.0 4.0 0.00 0.00 0.00 64 1014.1
20260507165424 68 238 0.0 3.0 0.00 0.00 0.00 66 1014.1
20260507164503 68 247 1.0 5.0 0.00 0.00 0.00 65 1014.2
20260507163603 67 0 0.0 0.0 0.00 0.00 0.00 68 1014.2
20260507162703 66 276 0.0 2.0 0.00 0.00 0.00 69 1014.3
20260507161803 65 223 2.0 5.0 0.00 0.00 0.00 71 1014.4
20260507160903 64 232 1.0 4.0 0.00 0.00 0.00 72 1014.5
20260507160024 63 226 0.0 2.0 0.00 0.00 0.00 74 1014.4
20260507155403 63 226 0.0 3.0 0.00 0.00 0.00 76 1014.4
20260507154504 62 228 0.0 1.0 0.00 0.00 0.00 79 1014.3
20260507153603 61 258 0.0 1.0 0.00 0.00 0.00 81 1014.4
20260507152724 60 0 0.0 0.0 0.00 0.00 0.00 82 1014.4
20260507151804 60 0 0.0 0.0 0.00 0.00 0.00 84 1014.3
20260507150903 59 0 0.0 0.0 0.00 0.00 0.00 87 1014.2
20260507150004 58 0 0.0 0.0 0.00 0.00 0.00 88 1014.3
20260507145403 57 0 0.0 0.0 0.00 0.00 0.00 89 1014.2
20260507144503 56 0 0.0 0.0 0.00 0.00 0.00 90 1014.3
20260507143604 55 0 0.0 0.0 0.00 0.00 0.00 91 1014.2
20260507142703 54 0 0.0 0.0 0.00 0.00 0.00 92 1014.2
20260507141826 54 0 0.0 0.0 0.00 0.00 0.00 92 1014.3
20260507140924 53 0 0.0 0.0 0.00 0.00 0.00 92 1014.2
20260507140003 52 0 0.0 0.0 0.00 0.00 0.00 92 1014.2
20260507135403 52 0 0.0 0.0 0.00 0.00 0.00 92 1014.3
20260507134503 52 0 0.0 0.0 0.00 0.00 0.00 94 1014.2
20260507133604 47 0 0.0 0.0 0.00 0.00 0.00 92 1014.3
20260507132703 47 0 0.0 0.0 0.00 0.00 0.00 92 1014.2
20260507131803 47 0 0.0 0.0 0.00 0.00 0.00 92 1014.2
20260507130903 47 0 0.0 0.0 0.00 0.00 0.00 92 1014.1
20260507130003 47 0 0.0 0.0 0.00 0.00 0.00 92 1014.0
20260507125404 47 0 0.0 0.0 0.00 0.00 0.00 92 1013.9
20260507124503 47 0 0.0 0.0 0.00 0.00 0.00 92 1013.7
20260507123604 47 0 0.0 0.0 0.00 0.00 0.00 92 1013.9
20260507122705 47 0 0.0 0.0 0.00 0.00 0.00 92 1013.6
20260507121804 47 0 0.0 0.0 0.00 0.00 0.00 92 1013.8
20260507120924 47 0 0.0 0.0 0.00 0.00 0.00 92 1013.7
20260507120003 47 0 0.0 0.0 0.00 0.00 0.00 92 1013.7
20260507115403 48 0 0.0 0.0 0.00 0.00 0.00 92 1013.7
20260507114503 48 0 0.0 0.0 0.00 0.00 0.00 92 1013.8
20260507113604 49 0 0.0 0.0 0.00 0.00 0.00 93 1013.6
20260507112703 48 0 0.0 0.0 0.00 0.00 0.00 92 1013.7
20260507111803 49 0 0.0 0.0 0.00 0.00 0.00 92 1013.6
20260507110903 49 0 0.0 0.0 0.00 0.00 0.00 92 1013.8
20260507110003 49 0 0.0 0.0 0.00 0.00 0.00 92 1013.9
20260507105403 49 0 0.0 0.0 0.00 0.00 0.00 92 1013.8
20260507104524 49 0 0.0 0.0 0.00 0.00 0.00 92 1013.9
20260507103603 49 0 0.0 0.0 0.00 0.00 0.00 92 1014.0
20260507102703 49 0 0.0 0.0 0.00 0.00 0.00 92 1014.1
20260507101824 49 0 0.0 0.0 0.00 0.00 0.00 92 1014.2
20260507100903 50 0 0.0 0.0 0.00 0.00 0.00 92 1014.3
20260507100003 50 0 0.0 0.0 0.00 0.00 0.00 91 1014.2
20260507095403 50 0 0.0 0.0 0.00 0.00 0.00 91 1014.3
20260507094503 50 0 0.0 0.0 0.00 0.00 0.00 91 1014.2
20260507093624 50 0 0.0 0.0 0.00 0.00 0.00 91 1014.3
20260507092703 50 0 0.0 0.0 0.00 0.00 0.00 91 1014.4
20260507091803 50 0 0.0 0.0 0.00 0.00 0.00 91 1014.6
20260507090903 50 0 0.0 0.0 0.00 0.00 0.00 91 1014.6
20260507090005 50 0 0.0 0.0 0.00 0.00 0.00 91 1014.7
20260507085403 50 0 0.0 0.0 0.00 0.00 0.00 91 1014.7
20260507084503 51 0 0.0 0.0 0.00 0.00 0.00 91 1014.9
20260507083603 51 0 0.0 0.0 0.00 0.00 0.00 91 1014.9
20260507082703 51 0 0.0 0.0 0.00 0.00 0.00 91 1015.0
20260507081803 51 0 0.0 0.0 0.00 0.00 0.00 90 1015.0
20260507080903 52 0 0.0 0.0 0.00 0.00 0.00 90 1015.1
20260507080003 52 0 0.0 0.0 0.00 0.00 0.00 90 1015.1
20260507075424 52 0 0.0 0.0 0.00 0.00 0.00 90 1015.0
20260507074503 52 0 0.0 0.0 0.00 0.00 0.00 90 1015.0
20260507073604 52 0 0.0 0.0 0.00 0.00 0.00 90 1015.2
20260507072703 52 0 0.0 0.0 0.00 0.00 0.00 89 1015.2
20260507071805 53 0 0.0 0.0 0.00 0.00 0.00 89 1015.3
20260507070904 53 0 0.0 0.0 0.00 0.00 0.00 89 1015.3
20260507070005 53 0 0.0 0.0 0.00 0.00 0.00 89 1015.3